Location: Unspecified
(0.0000°N, 0.0000°E)
Time: 18:07:50
(UTC+00:00)

KAITUO 1B - Pass Details

Date: 18 July 2019
Orbit: 497 x 515 km, 97.5° (Epoch: 07 December)

Event Time Altitude Azimuth Distance (km) Brightness Sun altitude
Rises 18:41:36 0° 198° (SSW) 2,608 ? -8.2°
Reaches altitude 10° 18:44:20 10° 220° (SW) 1,716 ? -8.9°
Maximum altitude 18:46:37 16° 258° (WSW) 1,380 ? -9.4°
Drops below altitude 10° 18:48:55 10° 297° (WNW) 1,703 ? -9.9°
Sets 18:51:37 0° 320° (NW) 2,579 ? -10.6°
